Home > Weather > Loughton > Past weeks

Flag for United Kingdom Past Weather in Loughton, England, United Kingdom — Yesterday and Last 2 Weeks

Now
66 °F

Mild.


Feels Like: 66 °F
Forecast: 54 / 62 °F
Wind: 5 mph from Southeast

Location: Gravesend-Broadness

Current Time: Jun 28, 2016 at 10:47:26 AM

Latest Report: Jun 28, 2016 at 10:00 AM


Visibility: N/A

Pressure: 30.02 "Hg

Humidity: 51%

Dew Point: 47 °F

Location of LoughtonLocation

Past Weather in Loughton — Graph

°F

Loughton Temperature Yesterday

Maximum temperature yesterday: 70 °F (at 4:00 PM)
Minimum temperature yesterday: 58 °F (at 1:00 AM)
Average temperature yesterday: 64 °F

High & Low Weather Summary for the Past Weeks

 TemperatureHumidityPressure
High72 °F (Jun 22, 4:00 PM)99% (Jun 17, 5:00 AM)30.24 "Hg (Jun 17, 5:00 AM)
Low50 °F (Jun 18, 12:00 AM)50% (Jun 27, 5:00 PM)29.35 "Hg (Jun 14, 7:00 PM)
Average61 °F82%29.88 "Hg
* Reported Jun 13 9:00 AM — Jun 28 9:00 AM, Loughton, Weather by CustomWeather, © 2016

Note: Actual official high and low records may vary slightly from our data, if they occured in-between our weather recording intervals... More about our weather records

Advertising

Loughton Weather History for the Previous 24 Hours

Scroll right to see more
 ConditionsComfort  
Time TempWeatherWind HumidityBarometerVisibility
9:00 AM
Tue, Jun 28
63 °FMild.2 mph64%30.03 "HgN/A
8:00 AM61 °FCool.1 mph67%30.04 "HgN/A
7:00 AM56 °FCool.1 mph91%30.06 "HgN/A
6:00 AM53 °FCool.2 mph92%30.06 "HgN/A
5:00 AM52 °FCool.3 mph94%30.07 "HgN/A
4:00 AM53 °FCool.1 mph90%30.07 "HgN/A
3:00 AM55 °FCool.3 mph81%30.07 "HgN/A
2:00 AM57 °FCool.3 mph75%30.08 "HgN/A
1:00 AM60 °FCool.5 mph69%30.10 "HgN/A
12:00 AM62 °FCool.6 mph64%30.09 "HgN/A
11:00 PM
Mon, Jun 27
62 °FRefreshingly cool.6 mph60%30.09 "HgN/A
10:00 PM63 °FMild.6 mph59%30.09 "HgN/A
9:00 PM64 °FMild.8 mph55%30.07 "HgN/A
8:00 PM65 °FMild.10 mph54%30.06 "HgN/A
7:00 PM67 °FMild.9 mph53%30.05 "HgN/A
6:00 PM69 °FMild.10 mph51%30.05 "HgN/A
5:00 PM69 °FMild.9 mph50%30.05 "HgN/A
4:00 PM70 °FMild.10 mph52%30.05 "HgN/A
3:00 PM68 °FMild.10 mph58%30.04 "HgN/A
2:00 PM68 °FMild.13 mph62%30.04 "HgN/A
1:00 PM67 °FMild.10 mph65%30.04 "HgN/A
12:00 PM66 °FMild.8 mph73%30.04 "HgN/A
11:00 AM63 °FMild.8 mph78%30.03 "HgN/A
10:00 AM65 °FMild.8 mph76%30.02 "HgN/A
Weather by CustomWeather, © 2016

See weather overviewHow to use our weather pages